GPS BIIF-10 (40730 NORAD) Tracking and Keplerian Element Data

This shows tracking and keplerian element data for the satellite.

Feedback or suggestion? Click here.




ElementValue
Catalog40730
NameGPS BIIF-10
Epoch Orbit3922
Epoch Day327.51604811
Epoch Year2020
RAAN349.6384
Inclination55.507
Eccentricity0.0057947
Argument of Perigee353.7886
Mean Anonmoly6.1825
Mean Motion2.00554734
Decay Rate-8.1E-07
L11 40730U 15033A 20327.51604811 -.00000081 00000-0 00000-0 0 9996
L22 40730 55.5070 349.6384 0057947 353.7886 6.1825 2.00554734 39225

Live tracking and technical data element details for GPS BIIF-10 (NORAD 40730). GPS BIIF-10 can be tracked NOW for your location showing map with azimuth and elevation plus other details from your city location.

Track the satellite on the map from your city or location and see movement details for azimuth, elevation, latitude, longitude, range, height, and movement on the map or in text.







IsCatalogInMostPopularTable: catalog: 40730, numindb: 509
Update: records affected: 1



GetName: 40730 GPS BIIF-10

Hit Count: updated at: Mon, 23 Nov 2020 21:19:47 GMT